Location: Austin
(30.3000°N, 97.7500°W)
Time: 10:49:25
(UTC-05:00)

Cosmos 2184 Rocket - Pass Details

Date: 26 May 2023
Orbit: 960 x 1001 km, 82.9° (Epoch: 30 May)

Event Time Altitude Azimuth Distance (km) Brightness Sun altitude
Exits shadow 22:09:04 - 189° (S) 2,828 6.1 -19.7°
Reaches altitude 10° 22:09:18 10° 189° (S) 2,737 6.0 -19.7°
Maximum altitude 22:15:36 77° 276° (W) 1,020 4.1 -20.8°
Drops below altitude 10° 22:21:58 10° 2° (N) 2,771 6.9 -21.8°
Sets 22:24:31 0° 4° (N) 3,726 7.6 -22.2°
